Weather History for Moline, IL

Change the Weather History Date:

Sunday, June 23, 2013

  Actual Average Record
Temperature  
Mean Temperature 78 °F 74 °F  
Max Temperature 87 °F 84 °F 97 °F (1931)
Min Temperature 68 °F 63 °F 47 °F (1972)
Degree Days  
Heating Degree Days 0 0  
Month to date heating degree days 27 17  
Since 1 June heating degree days 27 17  
Since 1 July heating degree days 6335 6201  
Cooling Degree Days 13 9  
Month to date cooling degree days 131 148  
Year to date cooling degree days 221 224  
Since 1 June cooling degree days 131 148  
Growing Degree Days 28 (Base 50)    
Moisture  
Dew Point 65 °F    
Average Humidity 68    
Maximum Humidity 84    
Minimum Humidity 51    
Precipitation  
Precipitation 0.00 in 0.15 in 4.36 in (1892)
Month to date precipitation 0.94 3.40  
Year to date precipitation 24.09 17.26  
Snow  
Snow 0.00 in 0.00 in - ()
Month to date snowfall 0.0 0.0  
Since 1 June snowfall 0.0 0.0  
Since 1 July snowfall 34.5 31.6  
Snow Depth 0.00 in    
Sea Level Pressure  
Sea Level Pressure 29.95 in    
Wind  
Wind Speed 7 mph (South)    
Max Wind Speed 21 mph    
Max Gust Speed 28 mph    
Visibility 10 miles    
Events      
T = Trace of Precipitation, MM = Missing Value Source: NWS Daily Summary

Daily Weather History Graph

Daily Weather History Graph

Search for Another Location

Airport:

Trip Planner

Search our weather history database for the weather conditions in past years. The results will help you decide how hot, cold, wet, or windy it might be!

Date:

Astronomy

Jun. 23, 2013 Rise Set
Actual Time 5:29 AM CDT 8:39 PM CDT
Civil Twilight 4:55 AM CDT 9:13 PM CDT
Nautical Twilight 4:11 AM CDT 9:57 PM CDT
Astronomical Twilight 3:19 AM CDT 10:49 PM CDT
Moon 8:50 PM CDT (6/23) 5:47 AM CDT (6/23)
Length of Visible Light 16h 18m
Length of Day
15h 10m
Full, 100% of the Moon is Illuminated
Jun 23
Full
Jun 29
Last Quarter
Jul 8
New
Jul 15
First Quarter
Jul 22
Full

Hourly Weather History & Observations

Time (CDT) Temp. Heat Index Dew Point Humidity Pressure Visibility Wind Dir Wind Speed Gust Speed Precip Events Conditions
12:52 AM 73.9 °F - 63.0 °F 68% 29.97 in 10.0 mi SSW 9.2 mph - N/A   Clear
1:52 AM 73.0 °F - 62.1 °F 68% 29.95 in 10.0 mi WSW 5.8 mph - N/A   Clear
2:52 AM 71.1 °F - 61.0 °F 70% 29.94 in 10.0 mi East 3.5 mph - N/A   Clear
3:52 AM 71.1 °F - 63.0 °F 75% 29.97 in 10.0 mi NE 12.7 mph - N/A   Clear
4:52 AM 70.0 °F - 63.0 °F 78% 30.00 in 10.0 mi East 6.9 mph - N/A   Clear
5:52 AM 69.1 °F - 63.0 °F 81% 29.96 in 10.0 mi SSE 9.2 mph - N/A   Clear
6:52 AM 71.1 °F - 64.0 °F 78% 29.97 in 10.0 mi East 6.9 mph - N/A   Clear
7:52 AM 73.0 °F - 64.9 °F 76% 29.95 in 10.0 mi SSE 9.2 mph - N/A   Clear
8:52 AM 75.9 °F - 64.9 °F 69% 29.95 in 10.0 mi South 11.5 mph - N/A   Clear
9:52 AM 81.0 °F 83.8 °F 68.0 °F 65% 29.96 in 10.0 mi SSW 10.4 mph - N/A   Clear
10:52 AM 82.9 °F 85.8 °F 68.0 °F 60% 29.96 in 10.0 mi South 9.2 mph - N/A   Clear
11:52 AM 84.9 °F 88.8 °F 69.1 °F 59% 29.95 in 10.0 mi South 11.5 mph - N/A   Clear
12:52 PM 84.0 °F 87.8 °F 69.1 °F 61% 29.96 in 10.0 mi West 10.4 mph 19.6 mph N/A   Mostly Cloudy
1:52 PM 84.0 °F 85.8 °F 64.9 °F 53% 29.94 in 10.0 mi WSW 11.5 mph - N/A   Partly Cloudy
2:52 PM 80.1 °F 81.2 °F 62.1 °F 54% 29.89 in 10.0 mi South 6.9 mph - N/A   Clear
3:52 PM 78.1 °F - 64.0 °F 62% 29.88 in 10.0 mi SE 6.9 mph - N/A   Clear
4:52 PM 82.0 °F 83.8 °F 64.9 °F 56% 29.86 in 10.0 mi South 4.6 mph - N/A   Clear
5:52 PM 82.9 °F 84.6 °F 64.9 °F 54% 29.90 in 10.0 mi SSE 8.1 mph - N/A   Clear
6:52 PM 81.0 °F 82.7 °F 64.9 °F 58% 29.93 in 10.0 mi SSE 9.2 mph - N/A   Clear
7:52 PM 77.0 °F - 64.9 °F 66% 29.94 in 10.0 mi South 4.6 mph - N/A   Clear
8:52 PM 75.0 °F - 66.0 °F 73% 29.94 in 10.0 mi South 3.5 mph - N/A   Clear
9:52 PM 71.1 °F - 66.0 °F 84% 29.96 in 10.0 mi Calm Calm - N/A   Clear
10:52 PM 72.0 °F - 66.0 °F 81% 29.97 in 10.0 mi Calm Calm - N/A   Clear
11:52 PM 72.0 °F - 66.0 °F 81% 29.99 in 10.0 mi Calm Calm - N/A   Mostly Cloudy